Location: Balaclava NSW 2575, Australia
(34.4510°S, 150.4953°E)
Time: 20:24:28
(UTC+10:00)

Hubble Space Telescope - Pass Details

Date: 19 May 2021
Orbit: 535 x 539 km, 28.5° (Epoch: 19 June)

Event Time Altitude Azimuth Distance (km) Brightness Sun altitude
Rises 17:42:20 0° 301° (WNW) 2,681 6.3 -8.7°
Reaches altitude 10° 17:44:49 10° 312° (NW) 1,793 4.6 -9.2°
Maximum altitude 17:48:22 28° 11° (NNE) 1,037 2.3 -9.9°
Drops below altitude 10° 17:51:57 10° 71° (ENE) 1,799 3.0 -10.6°
Enters shadow 17:52:05 - 72° (ENE) 1,844 3.0 -10.6°
